Location: Ethel Rock
(53.4667°N, 4.5667°W)
Time: 04:50:50
(UTC+00:00)

ASTRO F (AKARI) - Pass Details

Date: 24 October 2020
Orbit: 397 x 523 km, 98.2° (Epoch: 25 November)

Event Time Altitude Azimuth Distance (km) Brightness Sun altitude
Rises 05:57:15 0° 14° (NNE) 2,614 8.4 -10.3°
Reaches altitude 10° 05:59:23 10° 14° (NNE) 1,706 7.4 -10.0°
Maximum altitude 06:03:04 84° 287° (WNW) 491 4.5 -9.5°
Drops below altitude 10° 06:06:33 10° 199° (SSW) 1,619 7.1 -9.0°
Sets 06:08:32 0° 199° (SSW) 2,467 8.0 -8.7°
